FW7515 Weather Reports


Display with metric or nautical units.
time (UTC)temp
F
wind
direction
speed
MPH
gust
MPH
rain 1hr
in
rain 24hr
in
rain mn
in
humidity
%
barometer
mb
20260509222531 88 91 6.0 11.0 0.00 0.00 0.00 47 1008.3
20260509222029 88 69 5.0 9.0 0.00 0.00 0.00 48 1008.3
20260509221528 88 89 4.0 8.0 0.00 0.00 0.00 47 1008.2
20260509221026 88 81 5.0 9.0 0.00 0.00 0.00 48 1008.2
20260509220524 88 74 5.0 10.0 0.00 0.00 0.00 48 1008.2
20260509220022 89 78 3.0 6.0 0.00 0.00 0.00 48 1008.2
20260509215521 89 68 5.0 9.0 0.00 0.00 0.00 49 1008.3
20260509215019 88 55 5.0 7.0 0.00 0.00 0.00 49 1008.3
20260509214517 88 61 4.0 7.0 0.00 0.00 0.00 49 1008.2
20260509214035 89 51 3.0 6.0 0.00 0.00 0.00 49 1008.1
20260509213533 89 52 4.0 9.0 0.00 0.00 0.00 49 1008.3
20260509213030 88 76 3.0 6.0 0.00 0.00 0.00 50 1008.3
20260509212528 88 81 5.0 11.0 0.00 0.00 0.00 50 1008.3
20260509212046 90 76 5.0 9.0 0.00 0.00 0.00 47 1008.4
20260509211524 89 42 2.0 4.0 0.00 0.00 0.00 46 1008.5
20260509211022 89 90 3.0 6.0 0.00 0.00 0.00 45 1008.6
20260509210520 88 76 4.0 6.0 0.00 0.00 0.00 46 1008.7
20260509210017 89 71 4.0 7.0 0.00 0.00 0.00 46 1008.8
20260509205515 90 90 3.0 6.0 0.00 0.00 0.00 45 1009.0
20260509205034 91 114 2.0 5.0 0.00 0.00 0.00 43 1008.9
20260509204532 89 159 2.0 6.0 0.00 0.00 0.00 45 1009.1
20260509204049 89 8 2.0 5.0 0.00 0.00 0.00 46 1009.0
20260509203547 89 101 2.0 5.0 0.00 0.00 0.00 46 1009.1
20260509203025 89 76 3.0 7.0 0.00 0.00 0.00 47 1009.1
20260509202523 90 97 2.0 7.0 0.00 0.00 0.00 46 1009.2
20260509202022 90 26 2.0 6.0 0.00 0.00 0.00 45 1009.2
20260509201540 90 332 1.0 6.0 0.00 0.00 0.00 45 1009.5
20260509201018 89 234 2.0 5.0 0.00 0.00 0.00 45 1009.3
20260509200516 88 83 3.0 7.0 0.00 0.00 0.00 46 1009.4
20260509200034 89 69 3.0 8.0 0.00 0.00 0.00 46 1009.5
20260509195532 88 311 2.0 6.0 0.00 0.00 0.00 45 1009.5
20260509195050 88 78 3.0 6.0 0.00 0.00 0.00 46 1009.6
20260509194528 88 44 2.0 6.0 0.00 0.00 0.00 45 1009.7
20260509194105 88 4 2.0 6.0 0.00 0.00 0.00 44 1009.7
20260509193543 89 337 3.0 7.0 0.00 0.00 0.00 44 1009.7
20260509193041 88 237 4.0 6.0 0.00 0.00 0.00 44 1009.9
20260509192519 87 276 3.0 6.0 0.00 0.00 0.00 45 1010.0
20260509192018 87 46 4.0 9.0 0.00 0.00 0.00 47 1009.9
20260509191515 88 348 3.0 5.0 0.00 0.00 0.00 47 1009.9
20260509191033 87 332 2.0 5.0 0.00 0.00 0.00 48 1010.0
20260509190532 87 353 3.0 6.0 0.00 0.00 0.00 49 1010.1
20260509190030 86 20 3.0 6.0 0.00 0.00 0.00 48 1010.1
20260509185548 87 57 3.0 6.0 0.00 0.00 0.00 49 1010.2
20260509185026 87 63 3.0 6.0 0.00 0.00 0.00 49 1010.1
20260509184544 87 10 2.0 6.0 0.00 0.00 0.00 49 1010.2
20260509184021 86 58 3.0 6.0 0.00 0.00 0.00 49 1010.2
20260509183520 86 70 3.0 7.0 0.00 0.00 0.00 49 1010.3
20260509183017 86 89 3.0 9.0 0.00 0.00 0.00 50 1010.4
20260509182515 86 78 3.0 6.0 0.00 0.00 0.00 50 1010.4
20260509182034 86 54 3.0 6.0 0.00 0.00 0.00 49 1010.4
20260509181531 87 1 2.0 7.0 0.00 0.00 0.00 48 1010.6
20260509181030 86 48 3.0 6.0 0.00 0.00 0.00 49 1010.5
20260509180527 86 25 2.0 6.0 0.00 0.00 0.00 49 1010.6
20260509180025 86 51 3.0 7.0 0.00 0.00 0.00 50 1010.6
20260509175543 84 47 3.0 9.0 0.00 0.00 0.00 50 1010.6
20260509175041 85 40 4.0 8.0 0.00 0.00 0.00 51 1010.6
20260509174519 84 38 4.0 8.0 0.00 0.00 0.00 51 1010.7
20260509174017 85 37 6.0 9.0 0.00 0.00 0.00 50 1010.7
20260509173516 85 15 3.0 6.0 0.00 0.00 0.00 50 1010.6
20260509173034 85 35 3.0 7.0 0.00 0.00 0.00 51 1010.7
20260509172532 84 12 3.0 6.0 0.00 0.00 0.00 50 1010.8
20260509172050 84 307 3.0 6.0 0.00 0.00 0.00 50 1010.8
20260509171528 85 346 3.0 5.0 0.00 0.00 0.00 50 1011.0
20260509171026 84 12 3.0 7.0 0.00 0.00 0.00 50 1010.9
20260509170525 83 329 3.0 9.0 0.00 0.00 0.00 52 1011.1
20260509170022 83 11 3.0 9.0 0.00 0.00 0.00 52 1011.0
20260509165520 83 9 4.0 7.0 0.00 0.00 0.00 52 1011.0
20260509165018 83 13 3.0 12.0 0.00 0.00 0.00 51 1011.2
20260509164515 83 351 4.0 7.0 0.00 0.00 0.00 50 1011.1
20260509164034 83 13 5.0 10.0 0.00 0.00 0.00 52 1011.0
20260509163532 83 356 4.0 8.0 0.00 0.00 0.00 52 1011.1
20260509163029 83 325 3.0 8.0 0.00 0.00 0.00 52 1011.2
20260509162528 83 326 4.0 7.0 0.00 0.00 0.00 52 1011.2
20260509162146 83 334 4.0 7.0 0.00 0.00 0.00 52 1011.2
20260509161523 82 337 3.0 9.0 0.00 0.00 0.00 52 1011.1
20260509161021 82 356 4.0 6.0 0.00 0.00 0.00 52 1011.0
20260509160519 82 6 3.0 7.0 0.00 0.00 0.00 52 1011.0
20260509160017 82 345 3.0 7.0 0.00 0.00 0.00 53 1011.2
20260509155516 81 32 5.0 11.0 0.00 0.00 0.00 53 1010.9
20260509155034 81 30 4.0 11.0 0.00 0.00 0.00 54 1010.9
20260509154532 81 13 4.0 9.0 0.00 0.00 0.00 55 1010.9
20260509154030 81 16 4.0 9.0 0.00 0.00 0.00 56 1010.9
20260509153528 81 335 5.0 7.0 0.00 0.00 0.00 56 1010.9
20260509153025 80 6 4.0 8.0 0.00 0.00 0.00 56 1010.9
20260509152523 80 30 4.0 8.0 0.00 0.00 0.00 56 1011.0
20260509152021 80 334 4.0 8.0 0.00 0.00 0.00 57 1010.9
20260509151519 80 347 3.0 6.0 0.00 0.00 0.00 59 1011.0
20260509151016 80 340 2.0 5.0 0.00 0.00 0.00 59 1011.0
20260509150534 79 336 3.0 6.0 0.00 0.00 0.00 62 1011.0
20260509150032 78 343 4.0 7.0 0.00 0.00 0.00 61 1011.0
20260509145529 79 352 4.0 8.0 0.00 0.00 0.00 61 1011.1
20260509145028 78 18 3.0 6.0 0.00 0.00 0.00 63 1011.2
20260509144526 78 355 4.0 8.0 0.00 0.00 0.00 64 1011.2
20260509144024 77 353 4.0 6.0 0.00 0.00 0.00 65 1011.1
20260509143522 77 353 3.0 6.0 0.00 0.00 0.00 67 1011.2
20260509143020 77 4 3.0 7.0 0.00 0.00 0.00 68 1011.2
20260509142518 76 315 3.0 6.0 0.00 0.00 0.00 71 1011.1
20260509142016 76 330 4.0 6.0 0.00 0.00 0.00 74 1011.2
20260509141554 75 333 3.0 5.0 0.00 0.00 0.00 76 1011.2
20260509141032 75 342 2.0 5.0 0.00 0.00 0.00 77 1011.2
20260509140530 75 338 3.0 5.0 0.00 0.00 0.00 77 1011.3
20260509140029 75 316 3.0 5.0 0.00 0.00 0.00 77 1011.3
20260509135546 75 5 2.0 4.0 0.00 0.00 0.00 77 1011.3
20260509135025 75 360 2.0 4.0 0.00 0.00 0.00 77 1011.3
20260509134603 75 12 2.0 4.0 0.00 0.00 0.00 78 1011.3
20260509134021 74 350 2.0 6.0 0.00 0.00 0.00 79 1011.1
20260509133520 74 5 2.0 4.0 0.00 0.00 0.00 80 1011.2
20260509133018 74 356 2.0 5.0 0.00 0.00 0.00 80 1011.0
20260509132516 73 2 2.0 5.0 0.00 0.00 0.00 80 1011.0
20260509132035 73 29 2.0 5.0 0.00 0.00 0.00 81 1011.1
20260509131533 72 359 2.0 4.0 0.00 0.00 0.00 83 1011.1
20260509131031 72 22 2.0 4.0 0.00 0.00 0.00 84 1011.0
20260509130529 71 341 3.0 5.0 0.00 0.00 0.00 85 1011.1
20260509130047 71 348 2.0 4.0 0.00 0.00 0.00 86 1011.0
20260509125524 70 352 2.0 5.0 0.00 0.00 0.00 86 1010.9
20260509125022 70 329 2.0 5.0 0.00 0.00 0.00 87 1010.9
20260509124520 70 348 2.0 5.0 0.00 0.00 0.00 88 1010.9
20260509124018 69 322 1.0 4.0 0.00 0.00 0.00 89 1010.9
20260509123516 69 296 1.0 4.0 0.00 0.00 0.00 89 1010.9
20260509123034 69 327 1.0 3.0 0.00 0.01 0.00 89 1010.9
20260509122532 68 334 1.0 4.0 0.00 0.02 0.00 90 1010.9
20260509122029 68 309 2.0 4.0 0.00 0.02 0.00 90 1010.8
20260509121527 68 247 2.0 5.0 0.00 0.02 0.00 90 1010.8
20260509121025 68 320 2.0 5.0 0.00 0.02 0.00 90 1010.7
20260509120524 68 322 2.0 4.0 0.00 0.02 0.00 90 1010.7
20260509120021 68 2 2.0 4.0 0.00 0.02 0.00 90 1010.7
20260509115520 68 35 2.0 4.0 0.00 0.02 0.00 90 1010.8
20260509115018 68 19 2.0 5.0 0.00 0.07 0.00 90 1010.5
20260509114516 68 353 2.0 4.0 0.00 0.17 0.00 90 1010.3
20260509114053 68 360 2.0 4.0 0.00 0.17 0.00 90 1010.4
20260509113531 68 281 2.0 4.0 0.00 0.17 0.00 90 1010.3
20260509113049 68 332 2.0 4.0 0.00 0.17 0.00 89 1010.2
20260509112548 68 350 3.0 6.0 0.00 0.17 0.00 89 1010.0
20260509112026 68 327 3.0 7.0 0.00 0.17 0.00 88 1010.0
20260509111525 68 326 3.0 5.0 0.00 0.17 0.00 88 1009.8
20260509111023 68 295 3.0 6.0 0.00 0.17 0.00 87 1009.8
20260509110521 68 296 3.0 7.0 0.00 0.17 0.00 86 1009.6
20260509110039 68 314 2.0 5.0 0.00 0.17 0.00 86 1009.5
20260509105517 68 272 2.0 5.0 0.00 0.17 0.00 85 1009.6
20260509105115 68 251 2.0 4.0 0.00 0.17 0.00 84 1009.4
20260509104532 69 265 2.0 5.0 0.00 0.17 0.00 84 1009.6
20260509104030 69 238 2.0 4.0 0.00 0.17 0.00 83 1009.4
20260509103528 69 257 2.0 4.0 0.00 0.17 0.00 83 1009.4
20260509103026 69 252 2.0 5.0 0.00 0.17 0.00 83 1009.4
20260509102524 69 226 4.0 6.0 0.00 0.17 0.00 83 1009.4
20260509102022 69 223 2.0 5.0 0.00 0.19 0.00 82 1009.4
20260509101519 69 234 2.0 4.0 0.00 0.27 0.00 81 1009.3
20260509101017 69 230 2.0 4.0 0.00 0.30 0.00 81 1009.3
20260509100535 69 243 1.0 4.0 0.00 0.30 0.00 80 1009.3
20260509100033 70 245 1.0 3.0 0.00 0.30 0.00 80 1009.2
20260509095532 70 297 1.0 3.0 0.00 0.30 0.00 80 1009.3
20260509095029 70 297 1.0 3.0 0.00 0.30 0.00 79 1009.2
20260509094628 70 329 1.0 3.0 0.00 0.30 0.00 78 1009.0
20260509094025 71 359 1.0 3.0 0.00 0.30 0.00 77 1008.8
20260509093523 71 346 1.0 4.0 0.00 0.30 0.00 76 1008.6
20260509093101 72 333 2.0 3.0 0.00 0.31 0.00 74 1008.5
20260509092518 73 328 2.0 3.0 0.00 0.31 0.00 71 1008.4
20260509092016 73 353 2.0 5.0 0.00 0.31 0.00 68 1008.5
20260509091534 73 344 4.0 9.0 0.00 0.31 0.00 67 1008.5
20260509091033 73 1 3.0 6.0 0.00 0.31 0.00 69 1008.4
20260509090531 73 25 3.0 5.0 0.00 0.31 0.00 73 1008.3
20260509090049 72 5 4.0 7.0 0.00 0.31 0.00 75 1008.3
20260509085527 72 3 5.0 9.0 0.00 0.31 0.00 78 1008.3
20260509085026 71 40 6.0 16.0 0.00 0.31 0.00 82 1008.2
20260509084524 70 236 4.0 8.0 0.00 0.31 0.00 85 1007.2
20260509084021 70 208 4.0 11.0 0.00 0.31 0.00 85 1006.9
20260509083519 70 206 3.0 8.0 0.00 0.31 0.00 84 1006.7
20260509083017 70 174 3.0 6.0 0.00 0.31 0.00 84 1006.7
20260509082535 70 128 3.0 6.0 0.00 0.31 0.00 84 1006.4
20260509082033 70 173 3.0 7.0 0.00 0.31 0.00 84 1006.2
20260509081530 70 183 4.0 8.0 0.00 0.31 0.00 85 1006.2
20260509081028 70 196 3.0 6.0 0.00 0.31 0.00 85 1006.6
20260509080526 70 171 3.0 6.0 0.00 0.31 0.00 85 1007.0
20260509080024 70 181 2.0 5.0 0.00 0.31 0.00 85 1007.6
20260509075543 70 234 2.0 5.0 0.00 0.31 0.00 86 1008.3
20260509075020 70 218 3.0 8.0 0.00 0.31 0.00 86 1008.7
20260509074518 70 209 3.0 10.0 0.00 0.31 0.00 87 1009.0
20260509074016 70 216 4.0 9.0 0.00 0.31 0.00 88 1009.5
20260509073534 70 214 4.0 10.0 0.00 0.31 0.00 88 1009.7
20260509073033 70 216 4.0 9.0 0.00 0.31 0.00 88 1009.6
20260509072531 70 220 6.0 17.0 0.00 0.31 0.00 89 1009.7
20260509072029 70 216 8.0 15.0 0.00 0.31 0.00 89 1010.0
20260509071547 70 207 5.0 14.0 0.00 0.32 0.00 89 1010.1
20260509071025 70 217 6.0 14.0 0.00 0.36 0.00 89 1010.2
20260509070543 70 221 5.0 10.0 0.00 0.41 0.00 89 1010.7
20260509070021 70 224 6.0 13.0 0.00 0.44 0.00 89 1010.8
20260509065520 70 218 5.0 11.0 0.00 0.50 0.00 89 1010.8
20260509065017 70 220 6.0 11.0 0.00 0.52 0.00 90 1011.0
20260509064535 69 211 4.0 8.0 0.00 0.52 0.00 90 1011.0
20260509064034 69 219 3.0 5.0 0.00 0.52 0.00 91 1011.2
20260509063531 69 228 2.0 5.0 0.00 0.52 0.00 90 1011.4
20260509063029 69 221 2.0 3.0 0.00 0.52 0.00 90 1011.4
20260509062527 69 217 2.0 3.0 0.00 0.52 0.00 89 1011.3
20260509062025 69 238 1.0 3.0 0.00 0.52 0.00 89 1011.3
20260509061543 70 246 2.0 3.0 0.00 0.52 0.00 89 1011.4
20260509061021 69 247 2.0 4.0 0.00 0.52 0.00 89 1011.4
20260509060519 69 234 2.0 4.0 0.00 0.52 0.00 89 1011.3
20260509060017 69 225 1.0 2.0 0.00 0.52 0.00 89 1011.3
20260509055535 70 304 1.0 2.0 0.00 0.52 0.00 89 1011.4
20260509055033 70 228 1.0 3.0 0.00 0.52 0.00 88 1011.1
20260509054531 70 215 0.0 2.0 0.00 0.52 0.00 88 1011.1
20260509054029 70 15 0.0 2.0 0.00 0.52 0.00 88 1011.3
20260509053528 70 177 0.0 2.0 0.00 0.52 0.00 87 1011.3
20260509053026 70 343 0.0 2.0 0.00 0.52 0.00 87 1011.7
20260509052523 71 84 0.0 1.0 0.00 0.52 0.00 87 1011.7
20260509052042 71 48 3.0 4.0 0.00 0.52 0.00 86 1011.9
20260509051520 71 43 3.0 5.0 0.00 0.52 0.00 86 1012.0
20260509051018 71 29 2.0 4.0 0.00 0.52 0.00 86 1011.8
20260509050517 71 6 3.0 7.0 0.00 0.52 0.00 86 1011.8
20260509050015 71 1 3.0 6.0 0.00 0.52 0.52 86 1011.8
20260509045553 71 36 1.0 2.0 0.00 0.52 0.52 85 1011.0
20260509045031 71 151 0.0 2.0 0.00 0.52 0.52 85 1010.8
20260509044550 71 140 1.0 4.0 0.00 0.52 0.52 84 1010.7
20260509044027 71 180 1.0 3.0 0.00 0.52 0.52 84 1010.4
20260509043525 72 161 1.0 2.0 0.00 0.52 0.52 84 1010.3
20260509043023 72 184 1.0 4.0 0.00 0.52 0.52 84 1010.2
20260509042521 72 180 1.0 3.0 0.00 0.52 0.52 84 1010.1
20260509042019 72 168 1.0 4.0 0.00 0.52 0.52 84 1010.1
20260509041517 72 176 1.0 4.0 0.00 0.52 0.52 84 1010.1
20260509041034 71 189 1.0 3.0 0.00 0.52 0.52 84 1010.1
20260509040532 72 179 1.0 4.0 0.00 0.52 0.52 84 1010.1
20260509040031 72 156 1.0 2.0 0.00 0.52 0.52 83 1010.3
20260509035649 72 164 1.0 2.0 0.00 0.52 0.52 83 1010.2
20260509035026 72 139 0.0 2.0 0.00 0.52 0.52 82 1010.2
20260509034525 72 127 2.0 4.0 0.00 0.52 0.52 83 1010.5
20260509034023 72 117 2.0 4.0 0.00 0.52 0.52 83 1010.4
20260509033521 72 91 2.0 5.0 0.00 0.52 0.52 83 1010.6
20260509033019 72 70 3.0 6.0 0.00 0.52 0.52 83 1010.7
20260509032558 72 64 4.0 6.0 0.00 0.52 0.52 83 1010.4
20260509032015 72 58 3.0 5.0 0.00 0.52 0.52 82 1010.4
20260509031554 72 67 3.0 5.0 0.00 0.52 0.52 82 1010.2
20260509031031 72 104 2.0 6.0 0.00 0.52 0.52 82 1009.8
20260509030529 72 105 1.0 4.0 0.00 0.52 0.52 82 1009.4
20260509030027 72 128 3.0 6.0 0.00 0.52 0.52 82 1009.0
20260509025526 72 161 2.0 6.0 0.00 0.52 0.52 82 1009.0
20260509025024 72 143 2.0 6.0 0.00 0.52 0.52 81 1009.1
20260509024522 72 145 2.0 4.0 0.00 0.52 0.52 81 1009.1
20260509024040 72 150 2.0 5.0 0.00 0.52 0.52 81 1009.2
20260509023518 72 135 2.0 5.0 0.00 0.52 0.52 81 1009.0
20260509023037 72 176 1.0 5.0 0.00 0.52 0.52 81 1008.7
20260509022555 73 156 2.0 5.0 0.00 0.52 0.52 80 1008.7
20260509022053 73 188 2.0 6.0 0.00 0.52 0.52 80 1008.6
20260509021531 73 183 2.0 6.0 0.00 0.52 0.52 80 1008.4
20260509021049 73 180 2.0 5.0 0.00 0.52 0.52 80 1008.2
20260509020527 73 186 2.0 7.0 0.00 0.52 0.52 79 1008.0
20260509020025 73 172 3.0 6.0 0.00 0.52 0.52 79 1008.0
20260509015523 73 192 3.0 6.0 0.00 0.52 0.52 79 1008.1
20260509015021 73 186 3.0 6.0 0.00 0.52 0.52 79 1008.3
20260509014519 73 183 3.0 7.0 0.00 0.52 0.52 78 1008.4
20260509014017 73 174 2.0 6.0 0.00 0.52 0.52 78 1008.6
20260509013535 73 155 1.0 4.0 0.00 0.52 0.52 78 1008.7
20260509013032 73 168 1.0 4.0 0.00 0.52 0.52 77 1008.7
20260509012530 74 145 2.0 4.0 0.00 0.52 0.52 77 1009.0
20260509012027 74 172 1.0 4.0 0.00 0.52 0.52 77 1009.0
20260509011524 74 169 1.0 3.0 0.00 0.52 0.52 77 1009.1
20260509011022 74 163 1.0 3.0 0.00 0.52 0.52 77 1008.9
20260509010540 74 190 1.0 3.0 0.00 0.52 0.52 76 1008.6
20260509010018 74 147 1.0 4.0 0.00 0.52 0.52 76 1008.6
20260509005516 74 176 2.0 4.0 0.00 0.52 0.52 76 1008.6
20260509005034 74 181 2.0 6.0 0.00 0.52 0.52 76 1008.6
20260509004532 74 202 2.0 5.0 0.00 0.52 0.52 75 1008.5
20260509004030 74 192 3.0 10.0 0.00 0.52 0.52 75 1008.5
20260509003528 74 196 2.0 4.0 0.00 0.52 0.52 75 1008.4
20260509003025 74 215 2.0 7.0 0.00 0.52 0.52 75 1008.4
20260509002524 74 171 2.0 4.0 0.00 0.52 0.52 74 1008.3
20260509002022 75 188 2.0 7.0 0.00 0.52 0.52 74 1008.4
20260509001520 75 210 2.0 5.0 0.00 0.52 0.52 74 1008.2
20260509001018 75 191 2.0 5.0 0.00 0.52 0.52 73 1008.2
20260509000516 75 176 3.0 8.0 0.00 0.52 0.52 73 1008.2
20260509000034 75 191 2.0 5.0 0.00 0.52 0.52 72 1008.4
20260508235532 75 196 2.0 4.0 0.00 0.52 0.52 72 1008.4
20260508235050 75 207 2.0 5.0 0.00 0.52 0.52 72 1008.6
20260508234527 75 198 3.0 6.0 0.00 0.52 0.52 72 1008.7
20260508234026 75 168 2.0 5.0 0.00 0.52 0.52 71 1008.8
20260508233524 75 161 3.0 6.0 0.00 0.52 0.52 71 1008.8
20260508233022 75 161 2.0 6.0 0.00 0.52 0.52 71 1008.8
20260508232520 76 176 2.0 6.0 0.00 0.52 0.52 70 1008.7
20260508232019 76 187 2.0 5.0 0.00 0.52 0.52 69 1008.8
20260508231537 76 190 3.0 7.0 0.00 0.52 0.52 69 1008.8
20260508231015 76 172 3.0 7.0 0.00 0.52 0.52 68 1008.6
20260508230534 77 160 2.0 4.0 0.00 0.52 0.52 67 1008.7
20260508230031 77 204 3.0 6.0 0.00 0.52 0.52 67 1008.7
20260508225529 77 207 3.0 7.0 0.00 0.52 0.52 66 1008.8
20260508225027 77 187 3.0 6.0 0.00 0.52 0.52 66 1008.7
20260508224525 78 155 3.0 6.0 0.00 0.52 0.52 65 1008.6
20260508224022 78 204 2.0 7.0 0.00 0.52 0.52 64 1008.8
20260508223520 79 158 3.0 7.0 0.00 0.52 0.52 63 1008.7
20260508223019 78 212 4.0 9.0 0.00 0.52 0.52 64 1008.8